[[{"header":{"parameterUnit":"m.s-1","parameterCategory":1,"la1":30.2991,"la2":30.254,"lo1":-89.0895,"lo2":-89.0444,"dy":0.0017,"dx":0.0017,"nx":28,"ny":28,"refTime":"2025-11-22T03:00:00:Z","depth":0,"parameterNumber":2,"parameterNumberName":"U-component_of_WINDS"},"data":[0,0,0,0,0,0,0,0,0,0,0,0,0,0,0,0,0,0,0,0,0,0,0,0,0,0,0,0,0,0,0,0,0,0,0,0,0,0,0,0,0,0,0,0,0,0,0,0,0,0,0,0,0,0,0,0,0,0,1.4628,1.4628,0,1.4651,1.4651,1.4651,1.4616,1.4615,1.4614,1.4612,1.4637,1.4639,1.464,0,0,0,0,0,0,0,0,0,0,0,0,0,1.4554,1.4556,1.4628,1.4628,1.4628,1.4651,1.4651,1.4651,1.4616,1.4615,1.4613,1.4612,1.4636,1.4638,1.464,0,0,0,0,0,0,0,0,0,0,0,0,0,1.4583,1.4556,1.4628,1.4613,1.4612,1.465,1.4651,1.4651,1.4616,1.4615,1.4613,1.4611,1.4636,1.4638,1.4641,1.4694,0,0,1.4649,1.465,0,0,0,0,0,0,0,0,1.4581,1.4585,1.4615,1.4614,1.4613,1.4628,1.4634,1.4666,1.4617,1.4615,1.4612,1.461,1.4636,1.4638,1.4647,1.4695,1.4696,1.4649,1.4651,1.4652,1.4653,0,0,0,0,0,0,0,1.4579,1.4584,1.4637,1.4616,1.4615,1.4606,1.4608,1.464,1.4635,1.4615,1.4612,1.4616,1.4635,1.4644,1.4647,1.4697,1.4649,1.4652,1.4653,1.4654,1.4791,1.4793,0,0,0,0,0,0,1.4579,1.4583,1.4636,1.4637,1.4592,1.4609,1.4611,1.4626,1.4635,1.4635,1.4617,1.4614,1.464,1.4644,1.4648,1.4711,1.4652,1.4655,1.4656,1.4789,1.4791,1.4794,0,0,0,0,0,0,1.4577,1.4584,1.4635,1.4609,1.4615,1.4612,1.4629,1.4627,1.4636,1.4637,1.4636,1.4627,1.4639,1.4644,1.4683,1.4712,1.4656,1.4658,1.4787,1.479,1.4793,1.4839,0,0,0,0,0,0,1.4575,1.4583,1.4604,1.461,1.4617,1.467,1.463,1.4629,1.4641,1.4637,1.4646,1.4646,1.4638,1.4679,1.4686,1.4714,1.466,1.4784,1.4788,1.4792,1.4835,1.4843,1.485,0,0,0,0,0,1.4573,1.4616,1.4605,1.4611,1.4642,1.4672,1.4676,1.4665,1.4643,1.4664,1.4664,1.4645,1.4707,1.4683,1.469,1.472,1.4782,1.4787,1.4791,1.4831,1.4842,1.485,0,0,0,0,0,0,1.4613,1.4616,1.4604,1.4651,1.4661,1.4666,1.4691,1.4676,1.4694,1.4689,1.4676,1.4679,1.4721,1.4724,1.4698,1.4773,1.4741,1.4747,1.4769,1.4779,1.4786,1.4785,1.4663,0,0,0,0,0,1.4627,1.4651,1.4653,1.4693,1.4699,1.4694,1.4707,1.4698,1.4709,1.4713,1.4716,1.4727,1.4749,1.4764,1.4784,1.4835,1.4837,1.4859,1.4867,1.4873,1.4879,1.4906,1.4917,1.4808,1.4808,1.4808,0,0,1.4657,1.4662,1.4678,1.4702,1.4709,1.4734,1.4698,1.4726,1.4745,1.4717,1.4755,1.4757,1.4769,1.4814,1.4834,1.4819,1.4909,1.4879,1.4884,1.4886,1.4912,1.4922,1.4932,1.4812,1.4811,1.4811,0,0,1.4725,1.473,1.4765,1.4773,1.4784,1.478,1.4789,1.4796,1.4796,1.4833,1.4813,1.4835,1.4873,1.4882,1.4892,1.4963,1.4947,1.497,1.501,1.5038,1.5046,1.5054,1.508,1.5089,1.4975,1.4975,1.4975,0,1.476,1.4797,1.4785,1.4815,1.4826,1.4802,1.4837,1.4845,1.4863,1.4871,1.4853,1.49,1.4906,1.4954,1.4971,1.4979,1.4989,1.4969,1.5046,1.5053,1.506,1.5085,1.5095,1.4978,1.4978,1.4977,1.4977,0,1.4841,1.4867,1.4894,1.4912,1.4926,1.4958,1.4951,1.4967,1.4957,1.4955,1.4994,1.5,1.5021,1.5031,1.5022,1.5078,1.5068,1.5048,1.5016,1.5073,1.5096,1.5106,1.4982,1.4981,1.498,1.498,0,0,1.4936,1.4945,1.4956,1.4963,1.4974,1.4994,1.5025,1.5046,1.506,1.5072,1.5099,1.5131,1.5113,1.5124,1.5115,1.5139,1.5196,1.5116,1.5116,1.5132,1.5258,1.5274,1.5285,1.5185,1.5186,1.5188,1.5258,0,1.5004,1.5058,1.5048,1.5101,1.5125,1.5102,1.5129,1.5139,1.5138,1.5159,1.5158,1.5181,1.5155,1.5162,1.5184,1.5184,1.5221,1.5179,1.521,1.5211,1.5209,1.5297,1.5314,1.5379,1.5267,1.5268,1.5269,0,1.5091,1.5106,1.5162,1.5169,1.5178,1.5203,1.5221,1.5241,1.5251,1.5249,1.5262,1.5248,1.528,1.5246,1.529,1.5262,1.5273,1.5276,1.5278,1.5281,1.5244,1.5304,1.54,1.541,1.5283,1.5282,1.5281,0,1.5155,1.519,1.5228,1.5235,1.5244,1.5262,1.5266,1.5275,1.5288,1.5304,1.5312,1.5331,1.5342,1.5357,1.535,1.5326,1.5395,1.5361,1.5395,1.5395,1.5411,1.5411,1.5512,1.5417,1.5417,1.5417,1.5417,0,1.5233,1.5268,1.5257,1.5281,1.532,1.5307,1.5346,1.5348,1.5355,1.5379,1.536,1.5382,1.537,1.5392,1.5386,1.5423,1.5428,1.5428,1.5426,1.543,1.543,1.5438,1.5434,1.542,1.5419,1.5419,1.5418,0,1.5312,1.5306,1.5346,1.5351,1.5353,1.5381,1.5385,1.5407,1.5405,1.5435,1.5441,1.5438,1.5462,1.5456,1.5482,1.5478,1.5526,1.5518,1.5523,1.5521,1.5555,1.5553,1.5666,1.5681,1.5576,1.5577,1.5578,0,1.5363,1.5389,1.5397,1.5411,1.5417,1.544,1.5453,1.5442,1.5456,1.547,1.5491,1.5513,1.5531,1.5572,1.5571,1.5592,1.5585,1.5623,1.5588,1.5591,1.5586,1.5585,1.5588,1.5631,1.5632,1.5633,1.5634,0,1.5453,1.5449,1.5469,1.5488,1.5504,1.5518,1.5531,1.5543,1.5533,1.555,1.5575,1.5589,1.5616,1.5639,1.5658,1.5662,1.5647,1.5644,1.5654,1.5659,1.5661,1.5661,1.5543,1.5642,1.5641,1.5641,1.564,1.564,1.552,1.5543,1.5552,1.5575,1.5583,1.5595,1.5616,1.5616,1.5636,1.5657,1.5649,1.5678,1.5687,1.5711,1.5718,1.574,1.5726,1.5739,1.5742,1.5746,1.575,1.5656,1.5743,1.5743,1.5743,1.5743,1.5742,0,1.5611,1.5615,1.5636,1.5654,1.5672,1.5655,1.5668,1.5684,1.5709,1.5719,1.5737,1.5766,1.5788,1.5789,1.581,1.5828,1.5821,1.5834,1.5833,1.5834,1.5762,1.5752,1.5839,1.5839,1.5839,1.5839,1.5839,1.5839,1.566,1.5698,1.5695,1.5736,1.574,1.5768,1.5777,1.5788,1.5796,1.5829,1.5847,1.5848,1.5854,1.5875,1.5895,1.5895,1.5904,1.592,1.5917,1.5849,1.584,1.583,1.5821,1.5921,1.5922,1.5988,1.5988,1.5989]},{"header":{"parameterUnit":"m.s-1","parameterCategory":1,"la1":30.2991,"la2":30.254,"lo1":-89.0895,"lo2":-89.0444,"dy":0.0017,"dx":0.0017,"nx":28,"ny":28,"refTime":"2025-11-22T03:00:00:Z","depth":0,"parameterNumber":3,"parameterNumberName":"V-component_of_WINDS"},"data":[0,0,0,0,0,0,0,0,0,0,0,0,0,0,0,0,0,0,0,0,0,0,0,0,0,0,0,0,0,0,0,0,0,0,0,0,0,0,0,0,0,0,0,0,0,0,0,0,0,0,0,0,0,0,0,0,0,0,0.3731,0.3731,0,0.3732,0.3732,0.3732,0.3741,0.3741,0.3741,0.3741,0.3741,0.3741,0.374,0,0,0,0,0,0,0,0,0,0,0,0,0,0.3735,0.3735,0.3731,0.3731,0.3731,0.3732,0.3732,0.3732,0.3741,0.3741,0.3741,0.3741,0.3741,0.3741,0.374,0,0,0,0,0,0,0,0,0,0,0,0,0,0.3734,0.3735,0.3731,0.3736,0.3736,0.3732,0.3732,0.3732,0.3741,0.3741,0.3741,0.3742,0.3741,0.3741,0.374,0.3732,0,0,0.3739,0.3739,0,0,0,0,0,0,0,0,0.3734,0.3734,0.3735,0.3735,0.3736,0.3737,0.3733,0.3732,0.374,0.3739,0.3741,0.3742,0.3739,0.3739,0.3738,0.3732,0.3732,0.3739,0.3739,0.3739,0.3739,0,0,0,0,0,0,0,0.3734,0.3734,0.3731,0.3735,0.3735,0.3737,0.3737,0.3733,0.3737,0.3739,0.374,0.374,0.3739,0.3739,0.3738,0.3732,0.3739,0.3739,0.3739,0.3739,0.3717,0.3716,0,0,0,0,0,0,0.3734,0.3734,0.3731,0.3731,0.3736,0.3737,0.3737,0.3736,0.3737,0.3738,0.3739,0.374,0.3739,0.3739,0.3738,0.3728,0.3739,0.3739,0.3738,0.3717,0.3717,0.3716,0,0,0,0,0,0,0.3734,0.3734,0.3731,0.3733,0.3733,0.3736,0.3735,0.3736,0.3735,0.3737,0.3738,0.3738,0.3739,0.3739,0.3733,0.3728,0.3738,0.3738,0.3718,0.3717,0.3716,0.3707,0,0,0,0,0,0,0.3734,0.3734,0.3731,0.3733,0.3733,0.3727,0.3735,0.3736,0.3735,0.3736,0.3736,0.3737,0.3739,0.3734,0.3733,0.3728,0.3738,0.3718,0.3717,0.3717,0.3707,0.3706,0.3704,0,0,0,0,0,0.3734,0.3728,0.3731,0.373,0.3729,0.3726,0.3726,0.373,0.3734,0.3731,0.3732,0.3737,0.3728,0.3733,0.3732,0.3727,0.3718,0.3718,0.3717,0.3708,0.3706,0.3704,0,0,0,0,0,0,0.3725,0.3728,0.3732,0.3726,0.3726,0.3728,0.3724,0.3728,0.3726,0.3727,0.3731,0.3731,0.3725,0.3725,0.373,0.3718,0.3724,0.3723,0.3718,0.3716,0.3714,0.3714,0.3738,0,0,0,0,0,0.3723,0.372,0.3723,0.3718,0.3718,0.3721,0.372,0.3723,0.3722,0.3722,0.3723,0.3723,0.372,0.3718,0.3716,0.3707,0.3707,0.3703,0.3702,0.37,0.3699,0.3694,0.3692,0.3713,0.3713,0.3713,0,0,0.3717,0.3719,0.3717,0.3716,0.3716,0.3713,0.3721,0.3718,0.3715,0.3722,0.3716,0.3717,0.3716,0.3709,0.3706,0.3709,0.3693,0.3699,0.3698,0.3698,0.3693,0.3691,0.3689,0.3713,0.3713,0.3713,0,0,0.3706,0.3707,0.3702,0.3702,0.3703,0.3705,0.3703,0.3705,0.3706,0.37,0.3705,0.3702,0.3697,0.3696,0.3695,0.3682,0.3685,0.3681,0.3673,0.3668,0.3666,0.3665,0.3659,0.3657,0.368,0.368,0.368,0,0.3699,0.3695,0.3699,0.3695,0.3694,0.3701,0.3695,0.3695,0.3694,0.3693,0.3697,0.3691,0.3691,0.3683,0.368,0.3679,0.3677,0.3681,0.3666,0.3665,0.3663,0.3658,0.3656,0.3679,0.368,0.368,0.368,0,0.3686,0.3683,0.3679,0.3679,0.3677,0.3673,0.3676,0.3673,0.3676,0.3677,0.3671,0.3672,0.3669,0.3667,0.367,0.3659,0.3661,0.3665,0.3672,0.366,0.3656,0.3654,0.3679,0.3679,0.3679,0.3679,0,0,0.3669,0.3671,0.3669,0.3668,0.3669,0.3666,0.3662,0.3659,0.3657,0.3656,0.3652,0.3647,0.3651,0.3649,0.3652,0.3647,0.3636,0.3652,0.3652,0.3648,0.3623,0.362,0.3618,0.3638,0.3638,0.3637,0.3623,0,0.3657,0.365,0.3653,0.3645,0.3642,0.3648,0.3643,0.3643,0.3643,0.364,0.3641,0.3637,0.3643,0.3642,0.3638,0.3638,0.3631,0.3639,0.3633,0.3633,0.3633,0.3615,0.3612,0.3598,0.3621,0.3621,0.3621,0,0.3643,0.3642,0.3633,0.3634,0.3632,0.3629,0.3626,0.3623,0.3622,0.3623,0.3621,0.3624,0.3619,0.3625,0.3617,0.3623,0.362,0.362,0.3619,0.3619,0.3626,0.3613,0.3594,0.3592,0.3618,0.3618,0.3618,0,0.3631,0.3627,0.3621,0.3621,0.3621,0.3618,0.3618,0.3617,0.3615,0.3613,0.3611,0.3608,0.3606,0.3603,0.3605,0.361,0.3596,0.3603,0.3596,0.3596,0.3593,0.3593,0.3572,0.3592,0.3592,0.3592,0.3592,0,0.3617,0.3612,0.3616,0.3612,0.3606,0.3609,0.3602,0.3603,0.3602,0.3598,0.3602,0.3598,0.3601,0.3596,0.3598,0.359,0.3589,0.3589,0.3589,0.3588,0.3588,0.3587,0.3587,0.3591,0.3591,0.3591,0.3592,0,0.3603,0.3605,0.3599,0.36,0.36,0.3595,0.3595,0.3591,0.3592,0.3587,0.3586,0.3587,0.3582,0.3583,0.3578,0.3579,0.3569,0.3571,0.357,0.357,0.3562,0.3563,0.3539,0.3536,0.3559,0.3558,0.3558,0,0.3594,0.359,0.359,0.3587,0.3587,0.3583,0.3581,0.3584,0.3582,0.358,0.3576,0.3572,0.3568,0.356,0.356,0.3556,0.3557,0.3549,0.3556,0.3555,0.3556,0.3556,0.3555,0.3547,0.3547,0.3547,0.3547,0,0.3577,0.3578,0.3576,0.3573,0.3571,0.3569,0.3567,0.3564,0.3567,0.3564,0.3559,0.3557,0.3551,0.3546,0.3542,0.3541,0.3544,0.3544,0.3542,0.3541,0.354,0.354,0.3565,0.3545,0.3545,0.3545,0.3545,0.3545,0.3565,0.3561,0.356,0.3557,0.3556,0.3554,0.355,0.355,0.3547,0.3543,0.3544,0.3539,0.3536,0.3531,0.353,0.3524,0.3527,0.3525,0.3524,0.3523,0.3522,0.3542,0.3524,0.3524,0.3524,0.3524,0.3524,0,0.3548,0.3548,0.3544,0.3542,0.3539,0.3542,0.354,0.3537,0.3532,0.353,0.3527,0.3521,0.3516,0.3515,0.351,0.3506,0.3507,0.3504,0.3505,0.3504,0.352,0.3522,0.3504,0.3504,0.3504,0.3504,0.3504,0.3504,0.3539,0.3532,0.3533,0.3526,0.3525,0.352,0.3519,0.3516,0.3515,0.3508,0.3504,0.3504,0.3502,0.3497,0.3492,0.3492,0.3489,0.3486,0.3486,0.3501,0.3503,0.3505,0.3507,0.3486,0.3486,0.3471,0.3471,0.3471]}]]